STARLINK-6370, 57373

Orbit data source: Space-Track

STARLINK-6370, 57373 is a payload satellite owned by SpaceX/Seattle (US) in LEO that was launched on Sun, 16 Jul 2023 UTC via an FALCON 9 launch vehicle from the Air Force Eastern Test Range (AFETR). Payload-class satellites include a variety of spacecraft equipped with specific instruments for various scientific and technological missions. These include communications satellites like Starlink; space stations such as the ISS; scientific satellites like the Hubble; Earth observation satellites from companies like Planet Labs, Umbra, and HawkEye 360; GPS; miniature CubeSats for education and research; and military/defense satellites.

Loading next visibility...
Identifier
57373, 2023-099AX
Orbit
LEO
Country
Flag of USUS
Related business
Manufacturer
SpaceX/Seattle
Mission
Operational Commercial Communications
Bus & Motor
STARLINK, Unknown motor
Mass
305 kg wet, ~290 kg dry
Launch date (UTC)
2023-07-16 (3 years ago)
Launch vehicle
FALCON 9
Launch site
Air Force Eastern Test Range (AFETR)
Object type
Payload
Rocket body
Debris
Shape & HBR
Box + 1 Pan, 10.1 m
Radar Cross Section
11.087 m², Large (>1 m²)

Expand to show TLE details & history
Last TLE update: 2 days ago

TLE from 2 days ago
0 STARLINK-6370
1 57373U 23099AX  26170.99903987  .00001746  00000-0  72945-4 0  9997
2 57373  43.0023  24.0958 0001404 259.7853 100.2841 15.27588047161848
Epoch: 2026-06-19T23:58Z
TLE epoch observation values (Epoch: 2026-06-19T23:58:37.044Z)
Latitude
0.00001°
Longitude
116.2215°
Altitude
482.973 km
Speed
7.626 km/s
True Right ascension
01h 36m 22s
True Declination
0° 00' 00"
Sunlit
Object was in daylight at epoch
Visualization orbit readout
Latitude
Unknown
Longitude
Unknown
Altitude
Unknown
Speed
Unknown
Apparent Right ascension
Unknown
Apparent Declination
Unknown
Sunlit
N/A
Visualization observer readout
Local Sidereal Time
21:34:28
Azimuth
Unknown
Elevation
Unknown
Doppler factor
Unknown
Orbital elements
Apogee altitude
485.933 km
Perigee altitude
484.006 km
Semi-major axis
6,863.107 km
Eccentricity
0.00014
Inclination
43.0023°
RAAN
24.0958°
Arg. of periapsis
259.7853°
True anomaly
100.29993°
Mean anomaly
100.2841°
Eccentric anomaly
100.29201°
Mean motion
3.81735 °/min
Orbital period
94.31 mins
BSTAR
0.000072945
Loading maneuver chart data...
Computing Atmospheric mass density...
Loading historical data...
Loading historical data...
Loading historical data...
Loading historical data...
Loading historical data...
Loading historical data...
Loading historical data...

Documentation

Showing up to 5 results
|